Location: *
(43.6428°N, 11.5461°E)
Time: 07:05:38
(UTC+00:00)

ADEOS Rocket - Pass Details

Date: 21 October 2019
Orbit: 859 x 1306 km, 98.7° (Epoch: 13 November)

Event Time Altitude Azimuth Distance (km) Brightness Sun altitude
Rises 19:41:27 0° 10° (N) 4,293 6.5 -36.4°
Reaches altitude 10° 19:44:16 10° 6° (N) 3,297 5.9 -36.9°
Maximum altitude 19:51:41 56° 292° (WNW) 1,436 3.9 -38.1°
Enters shadow 19:54:13 39° 237° (WSW) 1,734 4.4 -38.5°
Exits shadow 19:57:29 15° 219° (SW) 2,686 5.3 -39.0°
Drops below altitude 10° 19:58:31 10° 216° (SW) 3,040 5.6 -39.2°
Sets 20:01:01 0° 212° (SSW) 3,937 6.2 -39.6°
